Year,Month,Day,Hour,Minute,Value (Times are PST for temperature in C)
2012,08,01,00,00,13.40
2012,08,01,00,01,13.40
2012,08,01,00,02,13.40
2012,08,01,00,03,13.40
2012,08,01,00,04,13.40
2012,08,01,00,05,13.40
2012,08,01,00,06,13.40
2012,08,01,00,07,13.40
2012,08,01,00,08,13.40
2012,08,01,00,09,13.40
2012,08,01,00,10,13.40
2012,08,01,00,11,13.40
2012,08,01,00,12,13.40
2012,08,01,00,13,13.40
2012,08,01,00,14,13.40
2012,08,01,00,15,13.40
2012,08,01,00,16,13.40
2012,08,01,00,17,13.40
2012,08,01,00,18,13.40
2012,08,01,00,19,13.40
2012,08,01,00,20,13.40
2012,08,01,00,21,13.40
2012,08,01,00,22,13.40
2012,08,01,00,23,13.40
2012,08,01,00,24,13.30
2012,08,01,00,25,13.30
2012,08,01,00,26,13.30
2012,08,01,00,27,13.30
2012,08,01,00,28,13.30
2012,08,01,00,29,13.30
2012,08,01,00,30,13.30
2012,08,01,00,31,13.30
2012,08,01,00,32,13.30
2012,08,01,00,33,13.30
2012,08,01,00,34,13.30
2012,08,01,00,35,13.30
2012,08,01,00,36,13.30
2012,08,01,00,37,13.30
2012,08,01,00,38,13.30
2012,08,01,00,39,13.30
2012,08,01,00,40,13.30
2012,08,01,00,41,13.30
2012,08,01,00,42,13.30
2012,08,01,00,43,13.30
2012,08,01,00,44,13.20
2012,08,01,00,45,13.20
2012,08,01,00,46,13.20
2012,08,01,00,47,13.20
2012,08,01,00,48,13.20
2012,08,01,00,49,13.20
2012,08,01,00,50,13.20
2012,08,01,00,51,13.20
2012,08,01,00,52,13.20
2012,08,01,00,53,13.20
2012,08,01,00,54,13.20
2012,08,01,00,55,13.20
2012,08,01,00,56,13.20
2012,08,01,00,57,13.10
2012,08,01,00,58,13.10
2012,08,01,00,59,13.10
2012,08,01,01,00,13.10
2012,08,01,01,01,13.10
2012,08,01,01,02,13.10
2012,08,01,01,03,13.10
2012,08,01,01,04,13.10
2012,08,01,01,05,13.10
2012,08,01,01,06,13.10
2012,08,01,01,07,13.10
2012,08,01,01,08,13.10
2012,08,01,01,09,13.10
2012,08,01,01,10,13.00
2012,08,01,01,11,13.00
2012,08,01,01,12,13.00
2012,08,01,01,13,13.00
2012,08,01,01,14,13.00
2012,08,01,01,15,12.90
2012,08,01,01,16,12.90
2012,08,01,01,17,12.90
2012,08,01,01,18,12.90
2012,08,01,01,19,12.90
2012,08,01,01,20,12.90
2012,08,01,01,21,12.90
2012,08,01,01,22,12.90
2012,08,01,01,23,12.90
2012,08,01,01,24,12.90
2012,08,01,01,25,12.90
2012,08,01,01,26,12.80
2012,08,01,01,27,12.80
2012,08,01,01,28,12.80
2012,08,01,01,29,12.80
2012,08,01,01,30,12.80
2012,08,01,01,31,12.80
2012,08,01,01,32,12.80
2012,08,01,01,33,12.80
2012,08,01,01,34,12.80
2012,08,01,01,35,12.80
2012,08,01,01,36,12.80
2012,08,01,01,37,12.80
2012,08,01,01,38,12.80
2012,08,01,01,39,12.80
2012,08,01,01,40,12.80
2012,08,01,01,41,12.80
2012,08,01,01,42,12.80
2012,08,01,01,43,12.80
2012,08,01,01,44,12.70
2012,08,01,01,45,12.70
2012,08,01,01,46,12.70
2012,08,01,01,47,12.70
2012,08,01,01,48,12.70
2012,08,01,01,49,12.70
2012,08,01,01,50,12.70
2012,08,01,01,51,12.70
2012,08,01,01,52,12.70
2012,08,01,01,53,12.70
2012,08,01,01,54,12.60
2012,08,01,01,55,12.60
2012,08,01,01,56,12.60
2012,08,01,01,57,12.60
2012,08,01,01,58,12.60
2012,08,01,01,59,12.60
2012,08,01,02,00,12.60
2012,08,01,02,01,12.60
2012,08,01,02,02,12.60
2012,08,01,02,03,12.60
2012,08,01,02,04,12.60
2012,08,01,02,05,12.60
2012,08,01,02,06,12.60
2012,08,01,02,07,12.60
2012,08,01,02,08,12.60
2012,08,01,02,09,12.60
2012,08,01,02,10,12.60
2012,08,01,02,11,12.60
2012,08,01,02,12,12.60
2012,08,01,02,13,12.60
2012,08,01,02,14,12.60
2012,08,01,02,15,12.60
2012,08,01,02,16,12.60
2012,08,01,02,17,12.60
2012,08,01,02,18,12.60
2012,08,01,02,19,12.60
2012,08,01,02,20,12.50
2012,08,01,02,21,12.50
2012,08,01,02,22,12.50
2012,08,01,02,23,12.50
2012,08,01,02,24,12.50
2012,08,01,02,25,12.50
2012,08,01,02,26,12.50
2012,08,01,02,27,12.50
2012,08,01,02,28,12.50
2012,08,01,02,29,12.50
2012,08,01,02,30,12.40
2012,08,01,02,31,12.40
2012,08,01,02,32,12.40
2012,08,01,02,33,12.40
2012,08,01,02,34,12.40
2012,08,01,02,35,12.40
2012,08,01,02,36,12.40
2012,08,01,02,37,12.40
2012,08,01,02,38,12.40
2012,08,01,02,39,12.40
2012,08,01,02,40,12.40
2012,08,01,02,41,12.40
2012,08,01,02,42,12.40
2012,08,01,02,43,12.30
2012,08,01,02,44,12.30
2012,08,01,02,45,12.30
2012,08,01,02,46,12.30
2012,08,01,02,47,12.30
2012,08,01,02,48,12.30
2012,08,01,02,49,12.30
2012,08,01,02,50,12.30
2012,08,01,02,51,12.30
2012,08,01,02,52,12.30
2012,08,01,02,53,12.30
2012,08,01,02,54,12.30
2012,08,01,02,55,12.30
2012,08,01,02,56,12.20
2012,08,01,02,57,12.20
2012,08,01,02,58,12.20
2012,08,01,02,59,12.20
2012,08,01,03,00,12.20
2012,08,01,03,01,12.20
2012,08,01,03,02,12.20
2012,08,01,03,03,12.20
2012,08,01,03,04,12.20
2012,08,01,03,05,12.20
2012,08,01,03,06,12.20
2012,08,01,03,07,12.20
2012,08,01,03,08,12.20
2012,08,01,03,09,12.20
2012,08,01,03,10,12.20
2012,08,01,03,11,12.10
2012,08,01,03,12,12.10
2012,08,01,03,13,12.10
2012,08,01,03,14,12.10
2012,08,01,03,15,12.10
2012,08,01,03,16,12.10
2012,08,01,03,17,12.10
2012,08,01,03,18,12.10
2012,08,01,03,19,12.10
2012,08,01,03,20,12.10
2012,08,01,03,21,12.10
2012,08,01,03,22,12.10
2012,08,01,03,23,12.10
2012,08,01,03,24,12.10
2012,08,01,03,25,12.10
2012,08,01,03,26,12.10
2012,08,01,03,27,12.10
2012,08,01,03,28,12.10
2012,08,01,03,29,12.10
2012,08,01,03,30,12.10
2012,08,01,03,31,12.10
2012,08,01,03,32,12.10
2012,08,01,03,33,12.10
2012,08,01,03,34,12.10
2012,08,01,03,35,12.10
2012,08,01,03,36,12.10
2012,08,01,03,37,12.10
2012,08,01,03,38,12.10
2012,08,01,03,39,12.00
2012,08,01,03,40,12.00
2012,08,01,03,41,12.00
2012,08,01,03,42,12.00
2012,08,01,03,43,12.00
2012,08,01,03,44,12.00
2012,08,01,03,45,12.00
2012,08,01,03,46,12.00
2012,08,01,03,47,12.00
2012,08,01,03,48,12.00
2012,08,01,03,49,12.00
2012,08,01,03,50,12.00
2012,08,01,03,51,11.90
2012,08,01,03,52,11.90
2012,08,01,03,53,11.90
2012,08,01,03,54,11.90
2012,08,01,03,55,11.90
2012,08,01,03,56,11.90
2012,08,01,03,57,11.90
2012,08,01,03,58,11.90
2012,08,01,03,59,11.90
2012,08,01,04,00,11.90
2012,08,01,04,01,11.90
2012,08,01,04,02,11.90
2012,08,01,04,03,11.80
2012,08,01,04,04,11.80
2012,08,01,04,05,11.80
2012,08,01,04,06,11.80
2012,08,01,04,07,11.80
2012,08,01,04,08,11.80
2012,08,01,04,09,11.80
2012,08,01,04,10,11.80
2012,08,01,04,11,11.80
2012,08,01,04,12,11.80
2012,08,01,04,13,11.80
2012,08,01,04,14,11.80
2012,08,01,04,15,11.80
2012,08,01,04,16,11.80
2012,08,01,04,17,11.80
2012,08,01,04,18,11.80
2012,08,01,04,19,11.80
2012,08,01,04,20,11.80
2012,08,01,04,21,11.80
2012,08,01,04,22,11.80
2012,08,01,04,23,11.80
2012,08,01,04,24,11.80
2012,08,01,04,25,11.80
2012,08,01,04,26,11.80
2012,08,01,04,27,11.80
2012,08,01,04,28,11.70
2012,08,01,04,29,11.70
2012,08,01,04,30,11.70
2012,08,01,04,31,11.70
2012,08,01,04,32,11.70
2012,08,01,04,33,11.70
2012,08,01,04,34,11.70
2012,08,01,04,35,11.70
2012,08,01,04,36,11.70
2012,08,01,04,37,11.70
2012,08,01,04,38,11.70
2012,08,01,04,39,11.70
2012,08,01,04,40,11.70
2012,08,01,04,41,11.70
2012,08,01,04,42,11.70
2012,08,01,04,43,11.70
2012,08,01,04,44,11.60
2012,08,01,04,45,11.60
2012,08,01,04,46,11.60
2012,08,01,04,47,11.60
2012,08,01,04,48,11.60
2012,08,01,04,49,11.60
2012,08,01,04,50,11.60
2012,08,01,04,51,11.60
2012,08,01,04,52,11.60
2012,08,01,04,53,11.60
2012,08,01,04,54,11.60
2012,08,01,04,55,11.60
2012,08,01,04,56,11.60
2012,08,01,04,57,11.60
2012,08,01,04,58,11.50
2012,08,01,04,59,11.50
2012,08,01,05,00,11.50
2012,08,01,05,01,11.50
2012,08,01,05,02,11.50
2012,08,01,05,03,11.50
2012,08,01,05,04,11.50
2012,08,01,05,05,11.50
2012,08,01,05,06,11.50
2012,08,01,05,07,11.50
2012,08,01,05,08,11.50
2012,08,01,05,09,11.50
2012,08,01,05,10,11.50
2012,08,01,05,11,11.50
2012,08,01,05,12,11.50
2012,08,01,05,13,11.50
2012,08,01,05,14,11.50
2012,08,01,05,15,11.40
2012,08,01,05,16,11.40
2012,08,01,05,17,11.40
2012,08,01,05,18,11.40
2012,08,01,05,19,11.40
2012,08,01,05,20,11.40
2012,08,01,05,21,11.40
2012,08,01,05,22,11.40
2012,08,01,05,23,11.40
2012,08,01,05,24,11.40
2012,08,01,05,25,11.40
2012,08,01,05,26,11.40
2012,08,01,05,27,11.40
2012,08,01,05,28,11.40
2012,08,01,05,29,11.40
2012,08,01,05,30,11.40
2012,08,01,05,31,11.40
2012,08,01,05,32,11.40
2012,08,01,05,33,11.40
2012,08,01,05,34,11.40
2012,08,01,05,35,11.30
2012,08,01,05,36,11.30
2012,08,01,05,37,11.30
2012,08,01,05,38,11.30
2012,08,01,05,39,11.30
2012,08,01,05,40,11.30
2012,08,01,05,41,11.30
2012,08,01,05,42,11.30
2012,08,01,05,43,11.30
2012,08,01,05,44,11.30
2012,08,01,05,45,11.30
2012,08,01,05,46,11.30
2012,08,01,05,47,11.30
2012,08,01,05,48,11.30
2012,08,01,05,49,11.30
2012,08,01,05,50,11.30
2012,08,01,05,51,11.30
2012,08,01,05,52,11.30
2012,08,01,05,53,11.30
2012,08,01,05,54,11.30
2012,08,01,05,55,11.30
2012,08,01,05,56,11.30
2012,08,01,05,57,11.30
2012,08,01,05,58,11.30
2012,08,01,05,59,11.30
2012,08,01,06,00,11.30
2012,08,01,06,01,11.30
2012,08,01,06,02,11.30
2012,08,01,06,03,11.30
2012,08,01,06,04,11.30
2012,08,01,06,05,11.30
2012,08,01,06,06,11.30
2012,08,01,06,07,11.30
2012,08,01,06,08,11.30
2012,08,01,06,09,11.30
2012,08,01,06,10,11.30
2012,08,01,06,11,11.30
2012,08,01,06,12,11.30
2012,08,01,06,13,11.30
2012,08,01,06,14,11.30
2012,08,01,06,15,11.30
2012,08,01,06,16,11.30
2012,08,01,06,17,11.30
2012,08,01,06,18,11.40
2012,08,01,06,19,11.40
2012,08,01,06,20,11.40
2012,08,01,06,21,11.40
2012,08,01,06,22,11.40
2012,08,01,06,23,11.40
2012,08,01,06,24,11.40
2012,08,01,06,25,11.40
2012,08,01,06,26,11.40
2012,08,01,06,27,11.40
2012,08,01,06,28,11.40
2012,08,01,06,29,11.40
2012,08,01,06,30,11.40
2012,08,01,06,31,11.40
2012,08,01,06,32,11.50
2012,08,01,06,33,11.50
2012,08,01,06,34,11.50
2012,08,01,06,35,11.50
2012,08,01,06,36,11.60
2012,08,01,06,37,11.60
2012,08,01,06,38,11.60
2012,08,01,06,39,11.60
2012,08,01,06,40,11.60
2012,08,01,06,41,11.70
2012,08,01,06,42,11.70
2012,08,01,06,43,11.70
2012,08,01,06,44,11.70
2012,08,01,06,45,11.70
2012,08,01,06,46,11.70
2012,08,01,06,47,11.80
2012,08,01,06,48,11.80
2012,08,01,06,49,11.80
2012,08,01,06,50,11.80
2012,08,01,06,51,11.80
2012,08,01,06,52,11.90
2012,08,01,06,53,11.90
2012,08,01,06,54,11.90
2012,08,01,06,55,11.90
2012,08,01,06,56,11.90
2012,08,01,06,57,12.00
2012,08,01,06,58,12.00
2012,08,01,06,59,12.00
2012,08,01,07,00,12.10
2012,08,01,07,01,12.10
2012,08,01,07,02,12.10
2012,08,01,07,03,12.10
2012,08,01,07,04,12.20
2012,08,01,07,05,12.20
2012,08,01,07,06,12.20
2012,08,01,07,07,12.20
2012,08,01,07,08,12.30
2012,08,01,07,09,12.30
2012,08,01,07,10,12.30
2012,08,01,07,11,12.30
2012,08,01,07,12,12.40
2012,08,01,07,13,12.40
2012,08,01,07,14,12.40
2012,08,01,07,15,12.50
2012,08,01,07,16,12.50
2012,08,01,07,17,12.50
2012,08,01,07,18,12.60
2012,08,01,07,19,12.60
2012,08,01,07,20,12.60
2012,08,01,07,21,12.70
2012,08,01,07,22,12.70
2012,08,01,07,23,12.70
2012,08,01,07,24,12.80
2012,08,01,07,25,12.80
2012,08,01,07,26,12.80
2012,08,01,07,27,12.80
2012,08,01,07,28,12.90
2012,08,01,07,29,12.90
2012,08,01,07,30,12.90
2012,08,01,07,31,13.00
2012,08,01,07,32,13.00
2012,08,01,07,33,13.10
2012,08,01,07,34,13.10
2012,08,01,07,35,13.10
2012,08,01,07,36,13.10
2012,08,01,07,37,13.20
2012,08,01,07,38,13.20
2012,08,01,07,39,13.20
2012,08,01,07,40,13.30
2012,08,01,07,41,13.30
2012,08,01,07,42,13.40
2012,08,01,07,43,13.40
2012,08,01,07,44,13.40
2012,08,01,07,45,13.50
2012,08,01,07,46,13.60
2012,08,01,07,47,13.60
2012,08,01,07,48,13.70
2012,08,01,07,49,13.70
2012,08,01,07,50,13.80
2012,08,01,07,51,13.80
2012,08,01,07,52,13.90
2012,08,01,07,53,13.90
2012,08,01,07,54,14.00
2012,08,01,07,55,14.10
2012,08,01,07,56,14.10
2012,08,01,07,57,14.20
2012,08,01,07,58,14.20
2012,08,01,07,59,14.30
2012,08,01,08,00,14.30
2012,08,01,08,01,14.40
2012,08,01,08,02,14.40
2012,08,01,08,03,14.50
2012,08,01,08,04,14.60
2012,08,01,08,05,14.60
2012,08,01,08,06,14.70
2012,08,01,08,07,14.70
2012,08,01,08,08,14.80
2012,08,01,08,09,14.80
2012,08,01,08,10,14.80
2012,08,01,08,11,14.90
2012,08,01,08,12,15.00
2012,08,01,08,13,15.00
2012,08,01,08,14,15.00
2012,08,01,08,15,15.00
2012,08,01,08,16,15.00
2012,08,01,08,17,15.00
2012,08,01,08,18,15.00
2012,08,01,08,19,15.10
2012,08,01,08,20,15.20
2012,08,01,08,21,15.20
2012,08,01,08,22,15.30
2012,08,01,08,23,15.30
2012,08,01,08,24,15.30
2012,08,01,08,25,15.30
2012,08,01,08,26,15.20
2012,08,01,08,27,15.10
2012,08,01,08,28,15.20
2012,08,01,08,29,15.20
2012,08,01,08,30,15.20
2012,08,01,08,31,15.30
2012,08,01,08,32,15.30
2012,08,01,08,33,15.30
2012,08,01,08,34,15.40
2012,08,01,08,35,15.40
2012,08,01,08,36,15.50
2012,08,01,08,37,15.50
2012,08,01,08,38,15.60
2012,08,01,08,39,15.60
2012,08,01,08,40,15.70
2012,08,01,08,41,15.70
2012,08,01,08,42,15.70
2012,08,01,08,43,15.60
2012,08,01,08,44,15.60
2012,08,01,08,45,15.60
2012,08,01,08,46,15.70
2012,08,01,08,47,15.70
2012,08,01,08,48,15.70
2012,08,01,08,49,15.80
2012,08,01,08,50,15.80
2012,08,01,08,51,15.80
2012,08,01,08,52,15.80
2012,08,01,08,53,15.90
2012,08,01,08,54,15.90
2012,08,01,08,55,15.90
2012,08,01,08,56,16.00
2012,08,01,08,57,16.10
2012,08,01,08,58,16.10
2012,08,01,08,59,16.20
2012,08,01,09,00,16.20
2012,08,01,09,01,16.30
2012,08,01,09,02,16.30
2012,08,01,09,03,16.30
2012,08,01,09,04,16.40
2012,08,01,09,05,16.40
2012,08,01,09,06,16.30
2012,08,01,09,07,16.40
2012,08,01,09,08,16.40
2012,08,01,09,09,16.40
2012,08,01,09,10,16.50
2012,08,01,09,11,16.50
2012,08,01,09,12,16.60
2012,08,01,09,13,16.70
2012,08,01,09,14,16.70
2012,08,01,09,15,16.80
2012,08,01,09,16,16.90
2012,08,01,09,17,16.90
2012,08,01,09,18,16.80
2012,08,01,09,19,16.80
2012,08,01,09,20,16.80
2012,08,01,09,21,16.80
2012,08,01,09,22,16.80
2012,08,01,09,23,16.90
2012,08,01,09,24,16.90
2012,08,01,09,25,16.90
2012,08,01,09,26,17.00
2012,08,01,09,27,17.00
2012,08,01,09,28,17.00
2012,08,01,09,29,17.00
2012,08,01,09,30,17.10
2012,08,01,09,31,17.00
2012,08,01,09,32,16.90
2012,08,01,09,33,16.90
2012,08,01,09,34,17.00
2012,08,01,09,35,17.00
2012,08,01,09,36,17.00
2012,08,01,09,37,17.10
2012,08,01,09,38,17.20
2012,08,01,09,39,17.20
2012,08,01,09,40,17.30
2012,08,01,09,41,17.40
2012,08,01,09,42,17.40
2012,08,01,09,43,17.60
2012,08,01,09,44,17.70
2012,08,01,09,45,17.80
2012,08,01,09,46,17.90
2012,08,01,09,47,18.00
2012,08,01,09,48,18.00
2012,08,01,09,49,18.10
2012,08,01,09,50,18.20
2012,08,01,09,51,18.20
2012,08,01,09,52,18.20
2012,08,01,09,53,18.20
2012,08,01,09,54,18.30
2012,08,01,09,55,18.30
2012,08,01,09,56,18.30
2012,08,01,09,57,18.30
2012,08,01,09,58,18.40
2012,08,01,09,59,18.30
2012,08,01,10,00,18.30
2012,08,01,10,01,18.20
2012,08,01,10,02,18.20
2012,08,01,10,03,18.20
2012,08,01,10,04,18.10
2012,08,01,10,05,18.20
2012,08,01,10,06,18.20
2012,08,01,10,07,18.20
2012,08,01,10,08,18.00
2012,08,01,10,09,17.80
2012,08,01,10,10,17.70
2012,08,01,10,11,17.70
2012,08,01,10,12,17.60
2012,08,01,10,13,17.60
2012,08,01,10,14,17.70
2012,08,01,10,15,17.80
2012,08,01,10,16,17.90
2012,08,01,10,17,18.00
2012,08,01,10,18,18.00
2012,08,01,10,19,18.10
2012,08,01,10,20,18.20
2012,08,01,10,21,18.30
2012,08,01,10,22,18.20
2012,08,01,10,23,18.10
2012,08,01,10,24,18.00
2012,08,01,10,25,18.00
2012,08,01,10,26,17.90
2012,08,01,10,27,17.90
2012,08,01,10,28,17.90
2012,08,01,10,29,17.90
2012,08,01,10,30,17.80
2012,08,01,10,31,17.70
2012,08,01,10,32,17.70
2012,08,01,10,33,17.60
2012,08,01,10,34,17.50
2012,08,01,10,35,17.40
2012,08,01,10,36,17.30
2012,08,01,10,37,17.30
2012,08,01,10,38,17.30
2012,08,01,10,39,17.30
2012,08,01,10,40,17.40
2012,08,01,10,41,17.50
2012,08,01,10,42,17.50
2012,08,01,10,43,17.60
2012,08,01,10,44,17.70
2012,08,01,10,45,17.70
2012,08,01,10,46,17.80
2012,08,01,10,47,17.90
2012,08,01,10,48,18.00
2012,08,01,10,49,18.10
2012,08,01,10,50,18.20
2012,08,01,10,51,18.20
2012,08,01,10,52,18.30
2012,08,01,10,53,18.40
2012,08,01,10,54,18.40
2012,08,01,10,55,18.40
2012,08,01,10,56,18.30
2012,08,01,10,57,18.40
2012,08,01,10,58,18.40
2012,08,01,10,59,18.40
2012,08,01,11,00,18.50
2012,08,01,11,01,18.50
2012,08,01,11,02,18.40
2012,08,01,11,03,18.30
2012,08,01,11,04,18.30
2012,08,01,11,05,18.30
2012,08,01,11,06,18.30
2012,08,01,11,07,18.40
2012,08,01,11,08,18.50
2012,08,01,11,09,18.60
2012,08,01,11,10,18.70
2012,08,01,11,11,18.80
2012,08,01,11,12,18.80
2012,08,01,11,13,18.90
2012,08,01,11,14,18.80
2012,08,01,11,15,18.70
2012,08,01,11,16,18.70
2012,08,01,11,17,18.70
2012,08,01,11,18,18.70
2012,08,01,11,19,18.70
2012,08,01,11,20,18.70
2012,08,01,11,21,18.70
2012,08,01,11,22,18.80
2012,08,01,11,23,18.80
2012,08,01,11,24,18.80
2012,08,01,11,25,18.80
2012,08,01,11,26,18.80
2012,08,01,11,27,18.90
2012,08,01,11,28,18.80
2012,08,01,11,29,18.80
2012,08,01,11,30,18.80
2012,08,01,11,31,18.80
2012,08,01,11,32,18.90
2012,08,01,11,33,18.90
2012,08,01,11,34,19.00
2012,08,01,11,35,19.00
2012,08,01,11,36,19.10
2012,08,01,11,37,19.20
2012,08,01,11,38,19.10
2012,08,01,11,39,19.10
2012,08,01,11,40,19.10
2012,08,01,11,41,19.10
2012,08,01,11,42,19.10
2012,08,01,11,43,19.10
2012,08,01,11,44,19.10
2012,08,01,11,45,19.20
2012,08,01,11,46,19.10
2012,08,01,11,47,19.10
2012,08,01,11,48,19.10
2012,08,01,11,49,19.10
2012,08,01,11,50,19.10
2012,08,01,11,51,19.20
2012,08,01,11,52,19.10
2012,08,01,11,53,19.10
2012,08,01,11,54,19.20
2012,08,01,11,55,19.20
2012,08,01,11,56,19.30
2012,08,01,11,57,19.40
2012,08,01,11,58,19.40
2012,08,01,11,59,19.40
2012,08,01,12,00,19.40
2012,08,01,12,01,19.40
2012,08,01,12,02,19.40
2012,08,01,12,03,19.30
2012,08,01,12,04,19.30
2012,08,01,12,05,19.30
2012,08,01,12,06,19.30
2012,08,01,12,07,19.30
2012,08,01,12,08,19.30
2012,08,01,12,09,19.30
2012,08,01,12,10,19.30
2012,08,01,12,11,19.30
2012,08,01,12,12,19.30
2012,08,01,12,13,19.30
2012,08,01,12,14,19.30
2012,08,01,12,15,19.20
2012,08,01,12,16,19.10
2012,08,01,12,17,19.00
2012,08,01,12,18,18.90
2012,08,01,12,19,18.90
2012,08,01,12,20,18.90
2012,08,01,12,21,18.90
2012,08,01,12,22,18.90
2012,08,01,12,23,18.90
2012,08,01,12,24,18.90
2012,08,01,12,25,18.80
2012,08,01,12,26,18.90
2012,08,01,12,27,18.90
2012,08,01,12,28,18.90
2012,08,01,12,29,18.90
2012,08,01,12,30,19.00
2012,08,01,12,31,19.00
2012,08,01,12,32,19.00
2012,08,01,12,33,19.00
2012,08,01,12,34,19.00
2012,08,01,12,35,19.10
2012,08,01,12,36,19.20
2012,08,01,12,37,19.30
2012,08,01,12,38,19.30
2012,08,01,12,39,19.30
2012,08,01,12,40,19.30
2012,08,01,12,41,19.30
2012,08,01,12,42,19.40
2012,08,01,12,43,19.50
2012,08,01,12,44,19.60
2012,08,01,12,45,19.80
2012,08,01,12,46,19.90
2012,08,01,12,47,19.90
2012,08,01,12,48,20.00
2012,08,01,12,49,20.00
2012,08,01,12,50,20.00
2012,08,01,12,51,19.90
2012,08,01,12,52,19.90
2012,08,01,12,53,19.80
2012,08,01,12,54,19.80
2012,08,01,12,55,19.80
2012,08,01,12,56,19.80
2012,08,01,12,57,19.80
2012,08,01,12,58,19.90
2012,08,01,12,59,20.00
2012,08,01,13,00,20.00
2012,08,01,13,01,20.10
2012,08,01,13,02,20.20
2012,08,01,13,03,20.30
2012,08,01,13,04,20.30
2012,08,01,13,05,20.30
2012,08,01,13,06,20.30
2012,08,01,13,07,20.30
2012,08,01,13,08,20.30
2012,08,01,13,09,20.40
2012,08,01,13,10,20.40
2012,08,01,13,11,20.40
2012,08,01,13,12,20.40
2012,08,01,13,13,20.40
2012,08,01,13,14,20.40
2012,08,01,13,15,20.40
2012,08,01,13,16,20.40
2012,08,01,13,17,20.30
2012,08,01,13,18,20.20
2012,08,01,13,19,20.10
2012,08,01,13,20,19.90
2012,08,01,13,21,19.80
2012,08,01,13,22,19.80
2012,08,01,13,23,19.80
2012,08,01,13,24,19.70
2012,08,01,13,25,19.60
2012,08,01,13,26,19.60
2012,08,01,13,27,19.60
2012,08,01,13,28,19.70
2012,08,01,13,29,19.60
2012,08,01,13,30,19.50
2012,08,01,13,31,19.50
2012,08,01,13,32,19.60
2012,08,01,13,33,19.60
2012,08,01,13,34,19.60
2012,08,01,13,35,19.50
2012,08,01,13,36,19.40
2012,08,01,13,37,19.40
2012,08,01,13,38,19.50
2012,08,01,13,39,19.60
2012,08,01,13,40,19.70
2012,08,01,13,41,19.70
2012,08,01,13,42,19.60
2012,08,01,13,43,19.60
2012,08,01,13,44,19.50
2012,08,01,13,45,19.40
2012,08,01,13,46,19.20
2012,08,01,13,47,19.20
2012,08,01,13,48,19.10
2012,08,01,13,49,19.10
2012,08,01,13,50,19.10
2012,08,01,13,51,19.10
2012,08,01,13,52,19.10
2012,08,01,13,53,19.10
2012,08,01,13,54,19.10
2012,08,01,13,55,19.00
2012,08,01,13,56,19.10
2012,08,01,13,57,19.00
2012,08,01,13,58,18.90
2012,08,01,13,59,18.90
2012,08,01,14,00,19.00
2012,08,01,14,01,19.00
2012,08,01,14,02,19.10
2012,08,01,14,03,19.20
2012,08,01,14,04,19.20
2012,08,01,14,05,19.20
2012,08,01,14,06,19.30
2012,08,01,14,07,19.40
2012,08,01,14,08,19.40
2012,08,01,14,09,19.50
2012,08,01,14,10,19.60
2012,08,01,14,11,19.70
2012,08,01,14,12,19.70
2012,08,01,14,13,19.70
2012,08,01,14,14,19.60
2012,08,01,14,15,19.60
2012,08,01,14,16,19.70
2012,08,01,14,17,19.70
2012,08,01,14,18,19.60
2012,08,01,14,19,19.60
2012,08,01,14,20,19.40
2012,08,01,14,21,19.30
2012,08,01,14,22,19.30
2012,08,01,14,23,19.20
2012,08,01,14,24,19.20
2012,08,01,14,25,19.30
2012,08,01,14,26,19.40
2012,08,01,14,27,19.50
2012,08,01,14,28,19.60
2012,08,01,14,29,19.60
2012,08,01,14,30,19.60
2012,08,01,14,31,19.50
2012,08,01,14,32,19.60
2012,08,01,14,33,19.60
2012,08,01,14,34,19.60
2012,08,01,14,35,19.50
2012,08,01,14,36,19.40
2012,08,01,14,37,19.30
2012,08,01,14,38,19.30
2012,08,01,14,39,19.20
2012,08,01,14,40,19.20
2012,08,01,14,41,19.20
2012,08,01,14,42,19.20
2012,08,01,14,43,19.10
2012,08,01,14,44,19.10
2012,08,01,14,45,19.10
2012,08,01,14,46,19.00
2012,08,01,14,47,19.00
2012,08,01,14,48,19.10
2012,08,01,14,49,19.20
2012,08,01,14,50,19.20
2012,08,01,14,51,19.20
2012,08,01,14,52,19.10
2012,08,01,14,53,19.10
2012,08,01,14,54,19.10
2012,08,01,14,55,19.10
2012,08,01,14,56,19.20
2012,08,01,14,57,19.20
2012,08,01,14,58,19.20
2012,08,01,14,59,19.20
2012,08,01,15,00,19.20
2012,08,01,15,01,19.30
2012,08,01,15,02,19.50
2012,08,01,15,03,19.60
2012,08,01,15,04,19.70
2012,08,01,15,05,19.80
2012,08,01,15,06,19.90
2012,08,01,15,07,19.90
2012,08,01,15,08,19.90
2012,08,01,15,09,19.80
2012,08,01,15,10,19.70
2012,08,01,15,11,19.70
2012,08,01,15,12,19.60
2012,08,01,15,13,19.60
2012,08,01,15,14,19.60
2012,08,01,15,15,19.60
2012,08,01,15,16,19.60
2012,08,01,15,17,19.60
2012,08,01,15,18,19.60
2012,08,01,15,19,19.70
2012,08,01,15,20,19.70
2012,08,01,15,21,19.80
2012,08,01,15,22,19.80
2012,08,01,15,23,19.80
2012,08,01,15,24,19.90
2012,08,01,15,25,19.90
2012,08,01,15,26,19.90
2012,08,01,15,27,19.90
2012,08,01,15,28,20.00
2012,08,01,15,29,20.10
2012,08,01,15,30,20.10
2012,08,01,15,31,20.10
2012,08,01,15,32,20.10
2012,08,01,15,33,20.20
2012,08,01,15,34,20.20
2012,08,01,15,35,20.20
2012,08,01,15,36,20.30
2012,08,01,15,37,20.30
2012,08,01,15,38,20.20
2012,08,01,15,39,20.20
2012,08,01,15,40,20.20
2012,08,01,15,41,20.20
2012,08,01,15,42,20.20
2012,08,01,15,43,20.20
2012,08,01,15,44,20.20
2012,08,01,15,45,20.10
2012,08,01,15,46,20.10
2012,08,01,15,47,20.20
2012,08,01,15,48,20.30
2012,08,01,15,49,20.30
2012,08,01,15,50,20.30
2012,08,01,15,51,20.30
2012,08,01,15,52,20.40
2012,08,01,15,53,20.40
2012,08,01,15,54,20.40
2012,08,01,15,55,20.40
2012,08,01,15,56,20.40
2012,08,01,15,57,20.30
2012,08,01,15,58,20.10
2012,08,01,15,59,19.90
2012,08,01,16,00,19.90
2012,08,01,16,01,19.90
2012,08,01,16,02,19.90
2012,08,01,16,03,20.00
2012,08,01,16,04,20.20
2012,08,01,16,05,20.30
2012,08,01,16,06,20.40
2012,08,01,16,07,20.50
2012,08,01,16,08,20.60
2012,08,01,16,09,20.70
2012,08,01,16,10,20.70
2012,08,01,16,11,20.80
2012,08,01,16,12,20.80
2012,08,01,16,13,20.80
2012,08,01,16,14,20.90
2012,08,01,16,15,20.90
2012,08,01,16,16,20.90
2012,08,01,16,17,20.90
2012,08,01,16,18,20.90
2012,08,01,16,19,20.90
2012,08,01,16,20,21.00
2012,08,01,16,21,21.00
2012,08,01,16,22,21.00
2012,08,01,16,23,21.10
2012,08,01,16,24,21.10
2012,08,01,16,25,21.00
2012,08,01,16,26,21.00
2012,08,01,16,27,21.00
2012,08,01,16,28,20.90
2012,08,01,16,29,20.90
2012,08,01,16,30,20.90
2012,08,01,16,31,20.90
2012,08,01,16,32,20.80
2012,08,01,16,33,20.80
2012,08,01,16,34,20.80
2012,08,01,16,35,20.80
2012,08,01,16,36,20.80
2012,08,01,16,37,20.70
2012,08,01,16,38,20.70
2012,08,01,16,39,20.70
2012,08,01,16,40,20.80
2012,08,01,16,41,20.80
2012,08,01,16,42,20.80
2012,08,01,16,43,20.90
2012,08,01,16,44,20.90
2012,08,01,16,45,20.90
2012,08,01,16,46,21.00
2012,08,01,16,47,21.00
2012,08,01,16,48,21.10
2012,08,01,16,49,21.10
2012,08,01,16,50,21.00
2012,08,01,16,51,20.90
2012,08,01,16,52,20.70
2012,08,01,16,53,20.60
2012,08,01,16,54,20.50
2012,08,01,16,55,20.40
2012,08,01,16,56,20.40
2012,08,01,16,57,20.30
2012,08,01,16,58,20.30
2012,08,01,16,59,20.30
2012,08,01,17,00,20.30
2012,08,01,17,01,20.30
2012,08,01,17,02,20.30
2012,08,01,17,03,20.30
2012,08,01,17,04,20.20
2012,08,01,17,05,20.10
2012,08,01,17,06,20.10
2012,08,01,17,07,20.00
2012,08,01,17,08,20.10
2012,08,01,17,09,20.10
2012,08,01,17,10,20.20
2012,08,01,17,11,20.20
2012,08,01,17,12,20.20
2012,08,01,17,13,20.30
2012,08,01,17,14,20.40
2012,08,01,17,15,20.50
2012,08,01,17,16,20.60
2012,08,01,17,17,20.70
2012,08,01,17,18,20.70
2012,08,01,17,19,20.60